Regional Weather Roundup
Issued by NWS

Home | Current Version | Previous Version | Graphics & Text | Print | Product List | Glossary On
Versions: 1 2 3 4 5 6 7 8 9 10 11 12 13 14 15 16 17 18 19 20 21 22 23 24 25 26 27 28 29 30 31 32 33 34 35 36 37 38 39 40 41 42 43 44 45 46 47 48 49 50
217
ASUS43 KLSX 201707
RWRMO

WEATHER SUMMARY FOR MISSOURI
NATIONAL WEATHER SERVICE SPRINGFIELD MO
1200 PM CDT FRI OCT 20 2017

NOTE: "FAIR" INDICATES FEW OR NO CLOUDS BELOW 12,000 FEET WITH NO
       SIGNIFICANT WEATHER AND/OR OBSTRUCTIONS TO VISIBILITY.
       CURRENT SKY AND/OR WEATHER CONDITIONS ARE NOT AVAILABLE FOR
       CHILLICOTHE AND FARMINGTON.

MOZ001>031-035>038-043-044-053-054-201800-
...NORTHERN AND WESTERN MISSOURI...

CITY           SKY/WX    TMP DP  RH WIND       PRES   REMARKS
KANSAS CTY INT CLOUDY    71  56  58 S17       30.03F
KANSAS C DTWN  MOSUNNY   71  57  61 S14G23    30.04F
LEE`S SUMMIT   MOSUNNY   69  57  65 S20       30.06F
ST JOSEPH      SUNNY     72  57  59 S16G23    29.99F
CHILLICOTHE      N/A     69  56  62 S13G18    30.06F
KIRKSVILLE     CLOUDY    70  55  59 S12       30.10F

$$
MOZ066>068-077>081-088>096-101>105-201800-
...SOUTHWEST MISSOURI...

CITY           SKY/WX    TMP DP  RH WIND       PRES   REMARKS
SPRINGFIELD    SUNNY     69  53  56 S10G22    30.13F
JOPLIN         PTSUNNY   68  57  68 S12       30.10F
BRANSON        PTSUNNY   68  50  52 S7        30.17F

$$
MOZ032>034-039>042-045>050-055>058-069>072-201800-
...CENTRAL MISSOURI...

CITY           SKY/WX    TMP DP  RH WIND       PRES   REMARKS
COLUMBIA       CLOUDY    65  54  67 S9        30.14F
JEFFERSON CITY MOSUNNY   69  52  54 VRB5      30.14F
ROLLA          SUNNY     70  49  47 S13       30.17F
SEDALIA        MOSUNNY   70  57  63 S15       30.12F
WHITEMAN AFB   PTSUNNY   70  57  63 SW21      30.05F
WARRENSBURG    MOSUNNY   70  54  56 S14       30.08S
OSAGE BEACH    CLOUDY    69  54  58 SW10      30.15F

$$
MOZ051-052-059>065-201800-
...EAST CENTRAL MISSOURI...

CITY           SKY/WX    TMP DP  RH WIND       PRES   REMARKS
ST LOUIS INTL  PTSUNNY   71  52  50 S9        30.19F
SPIRIT OF STL  PTSUNNY   71  52  50 S8        30.17F
ST CHARLES     MOSUNNY   71  51  49 S7        30.17F

$$
MOZ072>076-082>087-097>100-106>115-201800-
...SOUTH CENTRAL AND SOUTHEAST MISSOURI...

CITY           SKY/WX    TMP DP  RH WIND       PRES   REMARKS
CAPE GIRARDEAU SUNNY     72  52  49 S7        30.23F
FARMINGTON     SUNNY     74  53  48 SE9       30.21F
POPLAR BLUFF   SUNNY     71  56  58 S7        30.21F
WEST PLAINS    MOSUNNY   70  51  51 SW9       30.20F

$$



USA.gov is the U.S. government's official web portal to all federal, state and local government web resources and services.